Location: Unspecified
(0.0000°N, 0.0000°E)
Time: 02:16:47
(UTC+02:00)

SWIFT - Visible Passes

Search period start: 27 April 2015 00:00
Search period end: 07 May 2015 00:00
Orbit: 553 x 571 km, 20.6° (Epoch: 26 April)

Date Brightness Start Highest point End Pass type
(mag) Time Alt. Az. Time Alt. Az. Time Alt. Az.
29 Apr 4.5 20:28:24 10° SSW 20:30:26 13° SSE 20:32:33 10° SE visible
29 Apr 5.3 22:08:46 10° SW 22:08:54 11° SW 22:08:54 11° SW visible
30 Apr 4.2 20:24:37 10° SSW 20:27:30 17° SSE 20:30:26 10° ESE visible
30 Apr 4.9 22:05:32 10° WSW 22:06:26 16° SW 22:06:26 16° SW visible
01 May 3.8 20:21:02 10° SW 20:24:31 23° SSE 20:28:01 10° ESE visible
01 May 4.5 22:02:23 10° WSW 22:04:03 23° WSW 22:04:03 23° WSW visible
02 May 3.3 20:17:36 10° SW 20:21:29 32° SSE 20:25:23 10° E visible
02 May 4.1 21:59:21 10° WSW 22:01:43 31° W 22:01:43 31° W visible
03 May 5.1 06:35:56 10° N 06:37:34 12° NNE 06:39:17 10° NE visible
03 May 3.8 21:56:25 10° W 21:59:25 36° WNW 21:59:25 36° WNW visible
04 May 4.9 06:31:59 10° NNW 06:34:36 16° NNE 06:37:16 10° ENE visible
04 May 4.0 21:53:38 10° W 21:57:08 31° NNW 21:57:08 31° NNW visible
05 May 4.5 06:28:42 12° NNW 06:31:36 21° NNE 06:34:54 10° ENE visible
05 May 4.3 21:50:59 10° WNW 21:54:28 23° NNW 21:54:51 23° N visible
06 May 4.0 06:26:17 18° NNW 06:28:33 29° NNE 06:32:18 10° E visible
06 May 4.7 21:48:31 10° WNW 21:51:26 17° NNW 21:52:31 16° N visible
